Location: BAF
(53.9483°N, 27.7497°E)
Time: 22:34:33
(UTC+02:00)

ISS - Pass Details

Date: 03 December 2020
Orbit: 418 x 419 km, 51.6° (Epoch: 16 January)

Event Time Altitude Azimuth Distance (km) Brightness Sun altitude
Rises 18:22:55 0° 277° (W) 2,369 1.4 -21.2°
Reaches altitude 10° 18:25:08 10° 268° (W) 1,503 0.2 -21.6°
Maximum altitude 18:28:11 32° 203° (SSW) 737 -2.3 -22.0°
Enters shadow 18:28:26 32° 193° (SSW) 744 -2.4 -22.1°
